Location: Unspecified
(0.0000°N, 0.0000°E)
Time: 01:28:39
(UTC+00:00)

Vanguard 1 - Pass Details

Date: 19 November 2019
Orbit: 652 x 3832 km, 34.3° (Epoch: 10 December)

Event Time Altitude Azimuth Distance (km) Brightness Sun altitude
Rises 04:49:46 0° 226° (SW) 7,873 14.4 -13.1°
Reaches altitude 10° 04:55:22 10° 222° (SW) 6,931 14.2 -11.8°
Maximum altitude 05:18:15 57° 147° (SSE) 3,691 13.3 -6.4°
Drops below altitude 10° 05:33:34 10° 72° (ENE) 4,927 14.6 -2.8°
Sets 05:36:42 0° 68° (ENE) 5,582 14.8 -2.0°
